Location: Croisilles
(50.1998°N, 2.8793°E)
Time: 21:04:47
(UTC+00:00)

SKYMED 2 - Pass Details

Date: 21 January 2021
Orbit: 621 x 623 km, 97.9° (Epoch: 02 March)

Event Time Altitude Azimuth Distance (km) Brightness Sun altitude
Exits shadow 17:24:59 - 20° (NNE) 2,862 6.6 -9.7°
Reaches altitude 10° 17:27:12 10° 29° (NNE) 2,005 5.7 -10.0°
Maximum altitude 17:31:15 36° 97° (E) 986 4.1 -10.6°
Drops below altitude 10° 17:35:15 10° 165° (SSE) 1,989 6.2 -11.2°
Sets 17:37:34 0° 173° (S) 2,890 7.1 -11.6°
